Location: Unspecified
(0.0000°N, 0.0000°E)
Time: 17:18:47
(UTC+00:00)

STARLINK 1050 - Pass Details

Date: 19 January 2020
Orbit: 548 x 551 km, 53.0° (Epoch: 23 January)

Event Time Altitude Azimuth Distance (km) Brightness Sun altitude
Rises 04:43:52 0° 179° (S) 2,737 7.5 -20.2°
Reaches altitude 10° 04:47:46 10° 142° (SE) 1,835 7.1 -19.3°
Maximum altitude 04:48:57 11° 125° (SE) 1,766 7.3 -19.0°
Drops below altitude 10° 04:50:09 10° 109° (ESE) 1,830 7.5 -18.8°
Sets 04:54:00 0° 72° (ENE) 2,716 8.0 -17.9°
